Temperature
15 16 16 16 13 12 13 14 15 15 15 16 17 16 15 14 15 15 14 14 14 14 14 14 14 14 14 14 14 14 14 13 13 13 13 13 13 13 13 13 13 14 14 14 14 14 14 14 14
15 15 16 15 12 12 13 14 14 15 16 17 16 16 14 13 14 14 14 14 14 14 14 14 13 13 13 13 13 13 13 13 13 13 13 13 13 13 13 13 13 13 14 14 14 14 14 14 14
15 15 15 12 12 13 14 14 14 15 16 16 15 15 14 13 13 14 14 13 13 14 14 13 13 13 13 13 13 13 13 13 13 13 13 13 13 13 13 13 13 13 13 13 13 13 14 14 14
15 15 14 11 13 13 14 14 14 15 16 16 15 13 13 13 13 13 13 13 13 13 13 13 13 13 13 13 13 13 13 13 13 13 13 13 12 12 12 13 13 13 13 13 13 13 13 13 13
15 15 12 12 12 13 13 14 15 14 14 15 14 12 12 12 13 13 13 13 13 13 13 13 12 12 12 12 12 12 12 12 12 12 12 12 12 12 12 12 12 12 13 13 13 13 13 13 13
14 12 11 12 12 13 13 14 14 13 13 14 13 11 11 12 12 12 13 13 12 12 12 12 12 12 12 12 12 12 12 12 12 12 12 12 12 12 12 12 12 12 12 12 12 12 12 12 13
13 10 11 12 12 13 13 14 13 12 12 13 13 11 11 11 11 12 12 12 12 12 12 12 12 12 12 12 12 12 12 11 12 12 12 11 11 12 12 12 12 12 12 12 12 12 12 12 12
14 10 12 12 12 13 13 14 13 13 12 12 13 11 10 11 11 11 11 11 11 11 11 11 11 11 11 11 11 11 11 11 11 11 11 11 11 11 11 11 11 11 11 11 11 12 12 12 12
14 10 11 12 12 12 13 12 12 12 12 11 11 11 11 11 11 11 11 11 11 11 11 11 11 11 11 11 11 11 11 11 11 11 11 11 11 11 11 11 11 11 11 11 11 11 11 11 11
12 10 11 12 12 12 12 11 11 11 10 9 9 10 10 10 10 10 10 10 10 10 10 10 10 10 10 10 10 10 10 10 10 10 10 10 10 10 10 10 10 10 10 10 10 11 11 11 11
10 9 10 11 12 12 11 11 11 10 9 9 9 9 9 9 9 9 9 9 9 9 9 9 10 10 10 10 10 10 10 10 10 10 10 10 10 10 10 10 10 10 10 10 10 10 10 10 10
9 10 11 11 12 11 11 10 9 9 9 9 9 9 9 8 8 8 8 9 9 9 9 9 9 9 9 9 9 9 9 9 9 9 9 10 10 9 9 9 9 10 10 10 10 10 10 10 10
9 9 10 10 10 10 10 9 8 8 8 9 9 9 8 8 7 7 7 8 8 8 8 8 8 8 8 8 9 9 9 9 9 9 9 9 9 9 9 9 9 9 9 9 9 9 9 9 9
9 9 9 10 10 9 8 8 7 7 7 8 7 7 7 7 7 7 7 7 7 8 8 8 8 8 8 8 8 8 8 8 8 8 8 8 8 8 8 8 8 8 9 8 9 9 9 9 9
9 8 8 8 8 8 8 7 6 7 7 6 6 6 5 5 6 6 6 6 6 7 7 7 7 7 7 7 7 7 7 7 8 8 8 8 8 8 8 8 8 8 8 8 8 8 8 8 8
8 7 7 8 8 8 8 7 6 6 6 5 5 4 4 5 5 5 5 6 6 6 6 7 7 7 7 7 7 7 7 7 7 7 7 7 7 7 7 7 7 7 7 7 7 7 7 7 7
7 6 7 7 7 7 6 6 5 6 5 4 4 4 4 4 4 4 4 5 5 5 5 6 6 6 6 6 6 6 6 6 6 6 7 7 6 6 6 7 6 6 6 6 6 7 7 7 7
6 6 6 6 7 6 5 5 5 5 4 4 3 3 3 3 3 3 4 4 4 4 5 5 5 6 6 6 6 6 5 5 6 6 6 6 6 6 6 6 6 6 6 6 6 6 6 6 6
6 6 6 6 6 6 5 5 4 4 3 3 2 2 2 2 2 3 3 3 4 4 4 4 5 5 5 5 5 5 5 5 5 5 5 5 5 5 5 5 5 5 5 5 5 5 5 5 5
6 6 5 6 6 6 4 4 4 3 2 2 1 1 1 1 2 2 2 3 3 3 3 3 4 4 4 4 4 4 4 4 4 4 4 5 5 5 5 5 5 5 5 5 5 4 4 4 4
6 5 5 5 5 5 4 3 3 2 2 1 1 1 0 0 1 1 2 2 2 3 3 3 3 3 3 3 3 3 3 3 4 4 4 4 4 4 4 4 4 4 4 4 4 4 4 4 4
5 5 5 5 4 3 4 3 3 1 1 0 -0 -0 -0 -0 0 1 1 2 2 2 2 2 2 2 2 2 3 3 3 3 3 3 3 3 3 4 4 4 4 4 4 4 4 4 3 3 3
5 5 5 5 4 3 3 3 3 1 0 -0 -1 -1 -1 -0 -0 0 1 1 1 1 1 1 1 2 2 2 2 2 2 2 2 2 3 3 3 3 3 3 3 3 3 3 3 3 3 3 3
5 4 4 3 2 3 3 3 3 0 0 -0 -1 -1 -1 -1 -1 -1 -0 -0 0 0 1 1 1 1 1 1 1 1 1 1 2 2 2 2 2 2 2 3 3 3 3 3 3 3 3 2 2
4 3 3 3 3 3 3 3 2 0 -0 -1 -1 -2 -2 -2 -2 -2 -1 -1 -1 -0 -0 -0 -0 0 0 0 0 1 1 1 1 1 1 1 1 2 2 2 2 2 2 2 2 2 2 2 2
3 3 3 3 3 2 2 2 1 -1 -1 -1 -1 -2 -2 -2 -2 -2 -2 -2 -1 -1 -1 -1 -1 -1 -1 -0 -0 -0 -0 -0 -0 -0 0 0 1 1 1 1 1 1 2 2 2 2 2 2 2
3 2 2 2 1 1 1 0 -1 -2 -2 -2 -3 -3 -3 -3 -3 -3 -3 -2 -2 -2 -2 -2 -2 -2 -2 -1 -1 -1 -1 -1 -1 -1 -1 -0 -0 0 0 1 1 1 1 1 1 1 1 1 1
3 2 1 1 2 2 2 0 -0 -2 -2 -3 -4 -4 -4 -4 -4 -4 -3 -3 -3 -3 -3 -3 -3 -2 -2 -2 -2 -2 -2 -2 -2 -1 -1 -1 -1 -1 -0 -0 0 0 0 0 1 1 1 1 1
2 1 1 0 0 1 1 1 -1 -2 -2 -3 -4 -4 -4 -4 -4 -4 -4 -4 -4 -4 -3 -3 -3 -3 -3 -3 -3 -3 -3 -3 -2 -2 -2 -2 -2 -1 -1 -1 -1 -0 -0 -0 -0 -0 0 0 0
1 0 -0 0 -0 -1 -0 -0 -2 -3 -3 -3 -4 -4 -4 -4 -4 -5 -5 -5 -5 -4 -4 -4 -4 -4 -3 -4 -4 -4 -3 -3 -3 -3 -3 -3 -2 -2 -2 -1 -1 -1 -1 -1 -1 -1 -1 -1 -0
Wind_Speed
7 5 3 4 4 3 3 4 2 1 1 1 2 6 7 4 3 4 1 3 4 4 6 8 9 10 10 11 11 11 11 11 11 11 12 12 13 13 14 14 14 14 15 16 16 16 17 17 17
3 2 4 4 4 2 4 3 3 3 4 3 3 4 5 3 2 4 2 2 5 5 7 8 10 10 11 11 11 11 12 11 11 11 12 12 12 13 13 13 14 14 15 16 16 16 16 16 16
2 1 3 3 3 6 5 4 5 3 2 2 3 4 4 2 2 2 1 4 5 5 7 8 10 10 10 10 11 11 11 11 11 11 12 12 12 12 13 13 13 14 15 16 16 16 16 16 17
2 3 3 3 5 5 5 4 4 2 2 2 4 4 3 3 0 1 5 6 7 6 7 8 10 10 10 10 10 11 11 10 11 11 11 12 12 12 12 12 13 14 14 15 15 16 16 16 17
3 4 2 2 5 3 3 3 2 2 1 1 4 5 2 4 3 5 6 7 7 6 6 8 10 11 10 10 10 10 11 11 10 11 11 12 12 12 12 12 12 13 14 14 15 15 16 16 17
3 3 3 6 7 4 3 3 1 0 1 1 4 5 2 2 4 5 6 7 7 6 6 7 9 10 10 10 10 10 10 10 10 10 11 11 11 12 12 12 12 13 13 14 14 15 15 16 16
4 4 5 6 4 4 3 2 1 1 0 1 3 5 2 1 2 4 6 7 7 7 6 6 6 8 9 9 10 10 9 10 10 10 10 10 11 12 12 12 13 13 13 13 14 14 14 15 16
4 3 3 4 5 4 2 1 1 1 1 2 3 6 3 3 2 5 6 7 7 7 6 5 6 6 7 7 9 9 9 10 10 11 11 10 10 11 12 12 13 13 13 13 13 14 14 14 15
3 2 5 5 5 3 0 1 1 2 4 4 4 2 2 5 6 7 6 6 5 5 5 5 5 6 6 6 7 8 9 9 9 9 10 10 9 9 10 11 12 12 13 13 13 13 13 13 14
3 5 8 4 3 3 1 2 1 3 3 3 4 6 6 7 6 6 6 5 4 3 4 4 5 5 5 5 6 6 7 7 8 8 8 9 8 8 9 10 11 12 12 12 12 12 12 12 11
3 6 5 3 1 2 1 1 0 4 1 2 3 4 6 6 5 4 4 4 4 3 3 3 4 4 5 4 5 4 5 6 7 7 8 8 8 7 8 7 8 9 9 10 10 10 10 10 10
3 4 4 3 0 1 2 2 1 2 3 2 5 8 7 6 5 3 3 2 3 4 3 3 4 4 4 4 3 4 4 4 4 5 7 7 6 5 5 5 6 7 7 8 8 8 9 10 10
4 4 3 2 1 1 2 1 2 1 1 3 6 7 7 6 3 2 2 2 3 3 3 3 3 4 4 3 3 4 3 3 3 4 5 6 5 4 4 4 5 6 7 7 7 7 8 8 9
3 2 2 2 1 1 2 2 1 3 2 5 6 6 5 5 4 3 3 2 2 2 2 2 3 4 4 3 2 3 3 3 3 3 4 5 6 5 4 4 4 5 6 6 6 6 6 6 7
1 1 3 2 2 3 3 2 4 4 4 5 5 5 4 4 4 3 2 2 1 1 2 3 3 4 3 3 2 3 3 3 3 3 4 5 5 6 5 4 4 4 6 7 7 7 7 6 6
1 1 3 4 3 3 5 7 4 4 5 4 4 3 3 3 3 2 2 3 2 2 2 3 3 3 3 3 2 2 2 3 3 3 4 5 5 5 5 4 3 5 6 6 5 4 4 4 4
0 3 5 5 3 3 5 5 4 4 5 5 4 3 3 2 2 2 2 2 2 2 2 3 3 3 3 3 3 3 2 2 3 2 3 4 4 5 5 4 3 5 5 4 4 3 3 4 4
4 4 5 6 3 2 5 6 4 4 5 5 4 3 3 2 2 2 2 3 3 3 3 2 3 3 3 3 3 3 3 2 2 2 2 3 4 4 5 4 4 5 4 3 3 4 3 3 4
4 5 6 6 3 3 7 7 5 5 4 4 3 3 2 2 1 2 2 2 3 4 4 3 3 3 3 2 2 1 0 0 1 1 1 3 3 4 4 4 3 3 3 4 5 4 5 3 3
4 5 5 5 2 3 5 7 4 5 5 4 4 3 2 1 1 1 2 2 2 2 2 2 2 2 2 1 1 0 0 0 0 1 1 1 3 3 3 4 3 3 3 4 5 5 3 2 3
5 7 6 4 3 1 1 4 4 3 3 2 2 2 2 3 3 2 2 2 2 1 1 0 1 1 2 2 2 2 1 1 1 1 0 0 1 2 3 4 4 3 3 5 5 6 5 5 2
7 6 5 4 1 3 3 5 6 5 3 2 2 1 1 1 2 2 2 2 1 0 0 0 1 1 1 2 2 2 1 1 2 2 1 1 1 1 2 3 4 4 3 4 5 5 4 6 5
6 4 5 4 3 3 3 5 6 4 5 5 5 4 2 2 2 2 2 2 1 1 1 0 1 1 1 1 1 2 1 1 1 1 1 1 1 1 2 2 3 3 3 4 5 5 5 5 5
1 1 1 1 2 5 7 7 6 5 6 5 5 4 2 1 1 1 2 2 2 3 3 1 1 1 1 0 1 1 1 1 1 1 2 2 2 1 2 2 2 3 3 4 4 5 6 6 6
2 3 1 2 2 7 4 5 6 3 4 5 6 4 3 2 2 2 2 2 2 2 3 2 1 1 1 0 1 1 2 2 3 3 3 3 2 2 3 3 3 3 3 4 5 4 6 7 7
4 5 5 5 5 5 2 6 4 1 1 3 3 3 3 2 1 1 1 1 1 1 2 2 1 2 2 1 1 2 1 2 2 3 3 4 3 4 3 3 4 4 4 4 4 4 5 6 7
4 4 4 3 2 3 5 4 4 1 1 2 3 3 2 2 1 1 1 1 1 1 2 2 1 2 2 2 2 2 2 2 3 3 3 3 3 3 3 3 3 3 4 4 4 4 5 6 6
3 5 3 3 3 5 5 4 4 5 5 3 3 2 2 1 1 0 0 1 1 1 2 1 1 1 2 2 2 2 2 2 3 3 3 4 4 3 4 3 3 3 3 4 4 4 5 6 6
3 3 3 3 3 4 4 6 3 7 7 6 5 4 3 2 1 0 0 1 1 1 1 2 2 2 2 2 2 2 2 3 2 3 3 4 4 4 4 4 4 4 4 4 4 5 6 6 6
4 5 5 4 4 4 4 6 1 4 4 4 3 2 2 1 0 0 1 1 1 2 1 2 2 2 2 2 2 2 2 2 3 3 3 4 4 4 5 4 4 5 5 5 5 5 6 7 8
Wind_Direction
319 341 70 62 65 64 232 254 226 200 187 204 88 101 111 111 121 147 124 99 107 125 140 137 127 121 118 117 115 110 106 102 100 100 98 95 94 92 88 84 82 79 82 82 81 81 82 80 78
334 15 62 69 111 178 256 243 213 225 194 145 74 81 82 74 70 105 86 93 110 118 127 131 125 118 114 117 118 114 109 105 105 103 102 99 96 94 91 87 84 81 81 80 80 79 79 80 79
321 94 96 97 155 191 201 210 198 222 266 140 85 56 92 107 104 125 121 112 102 100 117 129 123 119 113 112 116 115 111 107 107 107 103 103 100 96 93 90 87 84 82 82 80 78 77 79 81
75 61 65 108 214 226 198 213 191 182 350 35 119 80 69 28 66 128 115 103 102 89 101 118 118 115 111 110 112 113 111 109 108 109 106 105 102 100 97 94 91 88 85 83 82 80 79 80 81
76 95 104 211 234 235 227 234 188 164 190 18 104 113 86 356 47 91 104 101 107 95 101 115 118 115 111 107 106 110 111 109 107 108 107 107 105 104 101 99 96 92 88 86 84 82 82 83 81
74 93 145 214 226 228 244 254 203 255 246 10 102 124 147 360 76 103 97 94 95 94 96 114 120 117 115 111 107 105 110 111 109 106 105 107 108 106 106 104 101 95 91 88 85 84 82 84 81
130 137 189 204 211 231 231 216 179 165 112 19 112 120 143 342 88 108 96 89 85 83 85 87 102 109 115 113 109 105 106 107 105 104 103 100 102 104 105 107 103 97 92 88 86 86 84 83 81
140 135 197 210 204 226 238 154 162 166 148 20 84 134 174 220 135 102 87 83 81 73 71 72 84 95 98 109 113 109 106 106 103 100 99 99 99 99 101 103 104 100 94 90 87 86 84 82 80
108 144 211 211 196 203 170 115 14 50 88 54 46 74 122 123 118 107 94 78 77 71 64 61 68 76 89 101 109 111 110 110 107 102 96 94 91 92 96 98 99 99 96 92 89 86 83 78 77
124 201 220 224 192 169 126 125 140 87 62 58 48 40 76 99 111 119 119 118 107 93 75 63 66 72 83 94 97 101 105 110 106 103 98 94 95 96 96 97 96 96 93 89 86 83 77 73 70
164 202 220 245 208 147 141 124 90 139 141 186 155 120 108 102 102 115 127 134 135 122 87 69 68 70 79 85 88 83 97 106 110 111 107 103 99 97 93 90 90 91 88 82 79 74 71 72 71
194 243 229 249 262 138 161 151 101 143 192 162 141 136 126 122 123 124 123 125 119 114 100 80 67 76 73 80 85 86 83 99 111 120 120 115 104 99 98 94 93 93 93 87 80 79 75 75 75
216 241 259 254 55 116 108 125 140 157 163 110 112 113 127 128 121 117 106 87 94 100 102 104 78 82 78 75 81 82 82 89 114 129 130 128 123 115 110 105 103 101 103 98 91 87 82 78 75
198 213 257 270 234 216 169 243 142 220 146 116 118 123 125 121 115 85 70 73 72 110 115 110 94 86 83 79 78 88 95 98 102 118 128 135 133 128 117 114 108 109 113 109 105 99 90 84 82
139 238 291 268 220 189 142 268 224 200 138 122 124 127 121 114 106 108 106 101 101 121 120 112 100 80 87 88 80 82 99 111 98 111 126 128 132 131 124 118 117 122 120 114 107 97 91 88 84
82 148 247 256 197 190 165 234 221 172 147 148 144 130 124 113 117 109 79 70 70 77 99 105 88 81 79 72 66 68 88 105 103 107 125 126 126 132 131 120 123 135 126 119 112 107 105 97 92
107 221 233 256 218 181 187 224 212 178 159 164 163 156 147 128 98 79 73 69 72 76 73 102 93 87 78 67 62 59 61 82 94 99 112 125 132 133 129 126 130 141 126 118 124 118 122 118 105
220 226 234 234 246 194 221 236 217 195 165 169 175 173 161 153 160 117 82 62 60 52 54 59 81 78 71 70 74 68 57 57 68 83 109 124 129 138 134 124 133 140 130 125 126 132 119 122 120
199 210 241 247 251 222 226 238 229 199 180 183 185 184 179 175 158 117 91 74 65 51 47 41 62 63 70 77 83 91 57 52 47 67 88 130 136 143 139 133 127 143 155 157 145 134 129 119 120
221 233 250 273 261 229 235 248 224 195 191 183 179 185 179 162 78 107 102 88 82 73 51 52 46 59 60 52 48 68 137 283 341 47 84 119 142 151 154 143 148 154 157 158 159 152 142 149 145
231 224 232 246 303 270 244 274 216 191 147 127 134 169 162 169 175 164 140 122 103 79 69 57 23 34 41 50 60 56 47 33 5 328 317 303 182 172 178 166 160 165 167 176 177 175 164 171 189
241 233 235 228 222 256 185 262 235 196 191 193 200 200 193 180 174 162 140 135 145 139 104 147 121 48 38 71 108 126 142 243 269 269 258 289 239 186 189 175 172 172 173 182 185 180 181 172 185
233 240 239 226 203 263 219 225 261 174 213 223 218 217 219 201 163 165 162 155 103 48 52 97 105 68 41 92 144 159 203 291 289 295 269 269 287 191 183 186 181 181 180 186 188 185 185 186 190
215 35 9 74 127 247 215 201 257 204 215 214 210 212 209 186 106 89 82 77 55 37 25 29 91 36 15 87 175 187 213 272 282 280 266 262 280 236 197 192 193 197 195 194 197 195 194 196 194
86 96 9 314 250 244 198 206 246 213 211 191 191 199 184 143 113 89 76 70 51 28 12 4 17 354 337 315 266 250 228 218 225 234 238 244 266 269 241 225 211 212 215 206 195 201 206 201 199
205 169 182 225 238 271 246 230 248 234 176 139 151 161 146 135 128 103 66 59 33 3 351 346 341 327 307 276 265 273 267 241 244 245 244 237 241 250 240 242 235 227 218 216 203 210 217 205 206
176 198 182 166 250 262 252 270 294 84 91 114 123 128 155 162 148 132 65 41 7 333 320 313 323 316 303 288 272 268 269 272 272 271 267 256 254 266 246 239 250 248 228 221 214 224 228 213 212
172 155 123 165 222 256 269 252 239 219 223 202 183 191 212 192 152 139 86 4 347 334 330 335 325 306 303 302 288 289 279 275 276 276 266 269 267 270 255 245 251 256 248 228 219 228 229 219 220
167 170 166 182 203 207 261 261 222 203 199 195 204 203 200 201 208 220 314 335 343 350 0 348 335 338 339 331 313 302 288 284 282 275 272 268 267 268 258 241 242 248 250 247 237 235 224 224 225
187 185 162 186 234 215 234 265 286 190 185 181 191 200 189 176 159 48 359 1 5 354 346 339 332 335 329 324 320 310 306 297 291 286 278 272 266 271 265 250 244 244 248 247 239 243 231 224 228
Height
1508 1508 1510 1512 1515 1524 1524 1518 1512 1511 1510 1510 1509 1510 1512 1517 1520 1527 1524 1523 1524 1525 1527 1528 1530 1531 1531 1532 1533 1533 1534 1534 1535 1535 1535 1535 1536 1536 1536 1536 1536 1536 1536 1536 1537 1537 1537 1537 1538
1507 1508 1511 1511 1519 1528 1524 1515 1512 1509 1508 1509 1510 1511 1513 1517 1519 1520 1521 1522 1524 1525 1527 1528 1529 1530 1531 1532 1533 1533 1534 1534 1535 1535 1535 1536 1536 1536 1536 1537 1537 1537 1537 1537 1538 1538 1538 1538 1539
1506 1508 1510 1512 1519 1522 1518 1511 1509 1507 1507 1508 1510 1512 1514 1518 1519 1520 1521 1522 1524 1525 1527 1528 1529 1530 1531 1532 1533 1533 1534 1534 1535 1535 1536 1536 1536 1537 1537 1537 1538 1538 1538 1538 1539 1539 1539 1540 1540
1506 1508 1510 1515 1516 1513 1510 1508 1506 1507 1507 1508 1510 1514 1516 1519 1520 1520 1521 1522 1523 1525 1526 1527 1529 1530 1531 1532 1532 1533 1534 1534 1535 1535 1536 1536 1537 1537 1537 1538 1538 1538 1539 1539 1540 1540 1541 1541 1541
1505 1506 1512 1517 1513 1510 1508 1506 1506 1506 1508 1509 1510 1514 1517 1519 1519 1520 1520 1522 1523 1524 1526 1527 1528 1529 1530 1531 1532 1532 1533 1534 1535 1535 1536 1536 1537 1537 1537 1538 1538 1539 1539 1540 1540 1541 1541 1542 1542
1504 1505 1515 1516 1511 1508 1507 1507 1506 1507 1508 1509 1511 1514 1517 1519 1519 1519 1520 1521 1522 1524 1525 1527 1528 1529 1529 1530 1531 1532 1533 1533 1534 1535 1535 1536 1536 1537 1537 1538 1539 1539 1540 1540 1541 1541 1542 1542 1543
1503 1507 1511 1510 1510 1508 1506 1506 1507 1508 1509 1510 1511 1514 1516 1518 1519 1519 1520 1521 1522 1524 1525 1526 1527 1528 1529 1530 1531 1532 1532 1533 1533 1534 1534 1535 1536 1537 1537 1538 1539 1539 1540 1540 1541 1541 1542 1543 1543
1501 1505 1507 1508 1507 1506 1504 1505 1507 1507 1509 1511 1511 1513 1516 1517 1518 1519 1520 1521 1522 1523 1524 1525 1526 1527 1528 1529 1530 1531 1532 1532 1533 1533 1534 1534 1535 1536 1537 1538 1538 1539 1540 1540 1541 1541 1542 1543 1543
1500 1507 1508 1505 1505 1504 1503 1504 1506 1508 1509 1510 1511 1513 1514 1516 1517 1518 1519 1520 1521 1522 1523 1524 1525 1526 1527 1528 1529 1530 1531 1531 1532 1532 1533 1534 1534 1535 1536 1536 1537 1538 1539 1540 1540 1541 1542 1543 1544
1499 1505 1503 1501 1501 1502 1503 1504 1506 1508 1509 1510 1511 1512 1513 1514 1515 1516 1516 1517 1518 1520 1521 1522 1523 1524 1525 1526 1527 1528 1529 1530 1530 1531 1532 1532 1533 1534 1534 1535 1536 1537 1538 1539 1540 1540 1541 1542 1543
1498 1501 1500 1500 1500 1501 1502 1504 1505 1506 1509 1510 1510 1510 1512 1512 1513 1514 1515 1515 1516 1518 1519 1520 1522 1523 1524 1525 1525 1526 1527 1528 1529 1530 1530 1531 1532 1533 1533 1534 1535 1536 1537 1538 1539 1540 1541 1542 1543
1498 1499 1499 1499 1500 1501 1502 1503 1505 1506 1508 1509 1509 1509 1509 1510 1511 1512 1513 1514 1515 1516 1517 1518 1520 1521 1522 1523 1524 1524 1525 1526 1527 1528 1529 1529 1530 1531 1532 1533 1534 1535 1536 1537 1538 1539 1540 1541 1542
1498 1498 1499 1499 1500 1501 1501 1503 1505 1506 1507 1507 1508 1508 1508 1508 1509 1510 1511 1512 1513 1513 1515 1516 1517 1518 1520 1521 1522 1522 1523 1524 1525 1526 1527 1527 1528 1529 1530 1531 1532 1533 1535 1536 1537 1538 1540 1541 1542
1496 1497 1498 1498 1498 1500 1501 1503 1504 1505 1506 1506 1506 1506 1506 1507 1508 1508 1509 1509 1510 1511 1512 1513 1515 1516 1517 1519 1519 1520 1521 1522 1523 1524 1525 1526 1526 1527 1528 1530 1531 1532 1533 1535 1536 1537 1538 1539 1540
1496 1498 1498 1498 1498 1499 1501 1504 1504 1504 1505 1504 1505 1505 1505 1506 1506 1506 1506 1507 1508 1509 1510 1511 1512 1514 1515 1516 1517 1518 1519 1520 1521 1522 1523 1524 1524 1525 1526 1528 1529 1530 1531 1533 1534 1536 1537 1538 1539
1497 1499 1501 1498 1497 1498 1502 1503 1502 1502 1503 1503 1504 1504 1504 1505 1505 1505 1505 1506 1507 1507 1508 1509 1510 1511 1513 1514 1515 1516 1517 1518 1518 1519 1520 1521 1522 1523 1524 1525 1526 1528 1529 1530 1532 1533 1534 1535 1537
1500 1503 1501 1499 1496 1497 1499 1500 1500 1501 1501 1502 1502 1502 1503 1503 1503 1503 1503 1503 1504 1505 1505 1506 1507 1508 1510 1511 1512 1513 1515 1515 1516 1517 1518 1519 1519 1521 1521 1522 1524 1525 1526 1528 1529 1531 1532 1533 1534
1501 1502 1500 1498 1496 1496 1498 1498 1499 1499 1500 1500 1501 1501 1501 1501 1501 1501 1502 1502 1502 1502 1503 1504 1505 1506 1507 1508 1509 1510 1512 1513 1514 1514 1515 1516 1517 1518 1519 1520 1521 1523 1524 1525 1526 1528 1529 1531 1532
1496 1498 1499 1496 1494 1496 1496 1496 1497 1497 1498 1499 1499 1499 1499 1499 1500 1500 1500 1501 1501 1501 1501 1502 1502 1503 1504 1505 1505 1506 1508 1509 1510 1511 1512 1513 1514 1515 1516 1517 1518 1520 1521 1522 1524 1525 1526 1528 1530
1495 1497 1497 1495 1494 1495 1496 1496 1495 1495 1496 1497 1497 1497 1497 1497 1498 1498 1498 1498 1499 1499 1499 1500 1499 1500 1501 1502 1503 1504 1505 1506 1508 1509 1509 1510 1511 1512 1513 1514 1515 1516 1518 1519 1520 1522 1522 1524 1526
1494 1496 1496 1496 1495 1494 1497 1496 1495 1495 1496 1496 1496 1495 1495 1495 1495 1495 1496 1496 1496 1497 1497 1498 1498 1498 1498 1499 1500 1501 1502 1503 1504 1505 1506 1507 1508 1509 1510 1511 1512 1513 1514 1515 1516 1518 1519 1520 1523
1492 1491 1492 1493 1498 1499 1498 1499 1492 1494 1495 1495 1494 1494 1493 1493 1493 1493 1493 1494 1495 1495 1496 1496 1496 1496 1496 1497 1497 1497 1498 1498 1499 1501 1502 1503 1505 1506 1507 1508 1509 1510 1511 1512 1513 1515 1516 1517 1518
1490 1489 1491 1492 1496 1500 1498 1500 1490 1492 1493 1493 1492 1492 1491 1491 1491 1491 1491 1492 1493 1493 1493 1493 1494 1494 1494 1494 1494 1495 1495 1496 1496 1498 1499 1500 1501 1502 1503 1504 1505 1506 1507 1508 1510 1511 1512 1513 1515
1488 1490 1492 1495 1498 1497 1491 1496 1487 1491 1487 1488 1489 1489 1489 1489 1489 1489 1489 1490 1490 1491 1491 1491 1491 1491 1492 1492 1492 1492 1492 1492 1493 1494 1495 1496 1497 1498 1499 1500 1501 1502 1503 1504 1506 1507 1508 1509 1511
1489 1495 1500 1498 1499 1491 1486 1489 1486 1485 1483 1483 1485 1486 1487 1487 1487 1487 1487 1487 1488 1488 1488 1489 1489 1489 1489 1489 1489 1489 1489 1489 1489 1490 1490 1491 1492 1493 1494 1496 1497 1498 1499 1500 1501 1503 1504 1505 1506
1489 1492 1497 1497 1496 1492 1488 1486 1485 1484 1482 1482 1483 1484 1485 1485 1485 1485 1485 1485 1485 1485 1486 1486 1486 1486 1486 1486 1486 1486 1486 1486 1486 1486 1487 1487 1488 1489 1490 1491 1492 1493 1494 1495 1497 1497 1499 1500 1501
1488 1491 1492 1498 1498 1499 1489 1489 1486 1484 1483 1483 1483 1483 1483 1483 1483 1484 1484 1484 1484 1483 1483 1483 1483 1483 1483 1483 1483 1483 1483 1483 1482 1483 1483 1484 1484 1485 1486 1486 1487 1488 1489 1490 1491 1492 1493 1494 1496
1486 1488 1496 1497 1496 1493 1487 1488 1484 1483 1483 1482 1482 1482 1481 1482 1482 1482 1482 1481 1481 1481 1481 1481 1481 1480 1480 1480 1479 1479 1479 1479 1479 1479 1479 1479 1480 1480 1481 1481 1482 1483 1484 1485 1485 1486 1487 1489 1490
1487 1489 1491 1495 1495 1495 1493 1483 1477 1477 1477 1479 1479 1479 1480 1480 1479 1480 1480 1480 1479 1479 1478 1478 1478 1477 1477 1477 1476 1476 1475 1475 1475 1475 1475 1475 1475 1475 1476 1476 1477 1477 1478 1479 1480 1480 1481 1482 1484
1485 1487 1490 1493 1494 1495 1493 1485 1475 1475 1475 1476 1477 1478 1479 1479 1478 1478 1478 1478 1477 1476 1476 1475 1475 1474 1474 1474 1473 1473 1472 1471 1471 1470 1470 1470 1470 1471 1471 1471 1472 1472 1473 1473 1474 1475 1475 1476 1477